,,,PA_Meas_PMT16A,,PR_Meas_QMR101_102,,RH_Meas_QMH101,,SR_Meas_QMS101,,TA_Meas_QMH101,,GenWind,,GenWind,
date,time,status,PA,status,PR,status,RH,status,SR,status,TA,status,DirAvg,status,SpdAvg,
2010-10-09, 00:00:04,VALID,999.938,VALID,0,VALID,89.526,VALID,0,VALID,25.1631,VALID,134,VALID,0.823047,
2010-10-09, 00:01:04,VALID,999.944,VALID,0,VALID,89.4878,VALID,0,VALID,25.1826,VALID,134,VALID,0.953125,
2010-10-09, 00:02:04,VALID,999.94,VALID,0,VALID,89.5031,VALID,0,VALID,25.1826,VALID,125,VALID,1.15352,
2010-10-09, 00:03:04,VALID,999.891,VALID,0,VALID,89.4344,VALID,0,VALID,25.1826,VALID,112,VALID,1.28047,
2010-10-09, 00:04:04,VALID,999.866,VALID,0,VALID,89.3734,VALID,0,VALID,25.1826,VALID,104,VALID,1.5293,
2010-10-09, 00:05:04,VALID,999.837,VALID,0,VALID,89.4039,VALID,0,VALID,25.1826,VALID,114,VALID,1.01797,
2010-10-09, 00:06:04,VALID,999.86,VALID,0,VALID,89.3505,VALID,0,VALID,25.1631,VALID,129,VALID,1.71328,
2010-10-09, 00:07:04,VALID,999.824,VALID,0,VALID,89.4649,VALID,0,VALID,25.1826,VALID,124,VALID,1.53047,
2010-10-09, 00:08:04,VALID,999.823,VALID,0,VALID,89.6404,VALID,0,VALID,25.1455,VALID,123,VALID,0.999219,
2010-10-09, 00:09:04,VALID,999.789,VALID,0,VALID,89.7472,VALID,0,VALID,25.1455,VALID,114,VALID,1.30938,
2010-10-09, 00:10:04,VALID,999.776,VALID,0,VALID,89.9609,VALID,0,VALID,25.126,VALID,118,VALID,1.73398,
2010-10-09, 00:11:04,VALID,999.76,VALID,0,VALID,90.144,VALID,0,VALID,25.1064,VALID,128,VALID,1.12539,
2010-10-09, 00:12:04,VALID,999.75,VALID,0,VALID,90.2737,VALID,0,VALID,25.1064,VALID,138,VALID,1.37227,
2010-10-09, 00:13:04,VALID,999.716,VALID,0,VALID,90.144,VALID,0,VALID,25.0674,VALID,142,VALID,2.01914,
2010-10-09, 00:14:04,VALID,999.695,VALID,0,VALID,89.999,VALID,0,VALID,25.0674,VALID,149,VALID,1.56523,
2010-10-09, 00:15:04,VALID,999.667,VALID,0,VALID,89.6786,VALID,0,VALID,25.0674,VALID,140,VALID,2.51523,
2010-10-09, 00:16:04,VALID,999.607,VALID,0,VALID,89.3123,VALID,0,VALID,25.0869,VALID,149,VALID,2.325,
2010-10-09, 00:17:04,VALID,999.572,VALID,0,VALID,89.0682,VALID,0,VALID,25.1045,VALID,130,VALID,2.02734,
2010-10-09, 00:18:04,VALID,999.533,VALID,0,VALID,88.9995,VALID,0,VALID,25.1455,VALID,149,VALID,1.90664,
2010-10-09, 00:19:04,VALID,999.488,VALID,0,VALID,88.7935,VALID,0,VALID,25.165,VALID,156,VALID,1.91602,
2010-10-09, 00:20:04,VALID,999.502,VALID,0,VALID,88.8622,VALID,0,VALID,25.2021,VALID,161,VALID,2.25352,
2010-10-09, 00:21:04,VALID,999.489,VALID,0,VALID,88.5723,VALID,0,VALID,25.2431,VALID,156,VALID,2.53555,
2010-10-09, 00:22:04,VALID,999.517,VALID,0,VALID,88.5723,VALID,0,VALID,25.2626,VALID,141,VALID,2.07813,
2010-10-09, 00:23:04,VALID,999.503,VALID,0,VALID,88.7783,VALID,0,VALID,25.2821,VALID,134,VALID,2.44883,
2010-10-09, 00:24:04,VALID,999.484,VALID,0,VALID,89.32,VALID,0,VALID,25.2431,VALID,132,VALID,1.90898,
2010-10-09, 00:25:04,VALID,999.497,VALID,0.5,VALID,89.8464,VALID,0,VALID,25.1455,VALID,133,VALID,1.49883,
2010-10-09, 00:26:04,VALID,999.499,VALID,0,VALID,90.3423,VALID,0,VALID,25.0674,VALID,135,VALID,1.5168,
2010-10-09, 00:27:04,VALID,999.525,VALID,0,VALID,90.7467,VALID,0,VALID,25.0088,VALID,120,VALID,1.39648,
2010-10-09, 00:28:04,VALID,999.549,VALID,0.5,VALID,91.0595,VALID,0,VALID,24.9503,VALID,83,VALID,1.26055,
2010-10-09, 00:29:04,VALID,999.474,VALID,0,VALID,91.3189,VALID,0,VALID,24.9112,VALID,67,VALID,1.60312,
2010-10-09, 00:30:04,VALID,999.479,VALID,0,VALID,91.5326,VALID,0,VALID,24.8917,VALID,64,VALID,0.985156,
2010-10-09, 00:31:04,VALID,999.472,VALID,0,VALID,91.7157,VALID,0,VALID,24.8722,VALID,61,VALID,0.847266,
2010-10-09, 00:32:04,VALID,999.456,VALID,0.5,VALID,91.8683,VALID,0,VALID,24.8527,VALID,59,VALID,0.805859,
2010-10-09, 00:33:04,VALID,999.44,VALID,0,VALID,91.9903,VALID,0,VALID,24.8136,VALID,59,VALID,0.494531,
2010-10-09, 00:34:04,VALID,999.445,VALID,0,VALID,92.0971,VALID,0,VALID,24.7941,VALID,59,VALID,0.274609,
2010-10-09, 00:35:04,VALID,999.439,VALID,0,VALID,92.2268,VALID,0,VALID,24.7746,VALID,23,VALID,0.534375,
2010-10-09, 00:36:04,VALID,999.436,VALID,0,VALID,92.3108,VALID,0,VALID,24.7532,VALID,312,VALID,0.568359,
2010-10-09, 00:37:04,VALID,999.39,VALID,0.5,VALID,92.3947,VALID,0,VALID,24.7551,VALID,314,VALID,0.599609,
2010-10-09, 00:38:04,VALID,999.383,VALID,0,VALID,92.4557,VALID,0,VALID,24.7337,VALID,314,VALID,0.582812,
2010-10-09, 00:39:04,VALID,999.362,VALID,0,VALID,92.5397,VALID,0,VALID,24.7551,VALID,314,VALID,0.580078,
2010-10-09, 00:40:04,VALID,999.318,VALID,0,VALID,92.5931,VALID,0,VALID,24.7337,VALID,314,VALID,0.334766,
2010-10-09, 00:41:04,VALID,999.337,VALID,0,VALID,92.6312,VALID,0,VALID,24.7142,VALID,314,VALID,0.342578,
2010-10-09, 00:42:04,VALID,999.295,VALID,0,VALID,92.6617,VALID,0,VALID,24.6946,VALID,314,VALID,0.285937,
2010-10-09, 00:43:04,VALID,999.243,VALID,0,VALID,92.7228,VALID,0,VALID,24.716,VALID,314,VALID,0.182422,
2010-10-09, 00:44:04,VALID,999.267,VALID,0,VALID,92.7609,VALID,0,VALID,24.677,VALID,314,VALID,0.316016,
2010-10-09, 00:45:04,VALID,999.198,VALID,0,VALID,92.7685,VALID,0,VALID,24.6361,VALID,54,VALID,0.784375,
2010-10-09, 00:46:04,VALID,999.224,VALID,0.5,VALID,92.7914,VALID,0,VALID,24.5775,VALID,51,VALID,1.05938,
2010-10-09, 00:47:04,VALID,999.2,VALID,0,VALID,92.7762,VALID,0,VALID,24.5385,VALID,48,VALID,1.11875,
2010-10-09, 00:48:04,VALID,999.206,VALID,0,VALID,92.7914,VALID,0,VALID,24.5385,VALID,40,VALID,1.11719,
2010-10-09, 00:49:04,VALID,999.189,VALID,0,VALID,92.7914,VALID,0,VALID,24.48,VALID,53,VALID,1.71133,
2010-10-09, 00:50:04,VALID,999.175,VALID,0,VALID,92.7457,VALID,0,VALID,24.4409,VALID,57,VALID,2.04219,
2010-10-09, 00:51:04,VALID,999.144,VALID,0,VALID,92.6617,VALID,0,VALID,24.3647,VALID,68,VALID,1.53633,
2010-10-09, 00:52:04,VALID,999.174,VALID,0,VALID,92.616,VALID,0,VALID,24.3452,VALID,79,VALID,1.38516,
2010-10-09, 00:53:04,VALID,999.131,VALID,0,VALID,92.5091,VALID,0,VALID,24.2866,VALID,81,VALID,1.59844,
2010-10-09, 00:54:04,VALID,999.129,VALID,0,VALID,92.4405,VALID,0,VALID,24.2458,VALID,85,VALID,0.551172,
2010-10-09, 00:55:04,VALID,999.112,VALID,0,VALID,92.3871,VALID,0,VALID,24.2067,VALID,86,VALID,0.63125,
2010-10-09, 00:56:04,VALID,999.115,VALID,0,VALID,92.4023,VALID,0,VALID,24.2067,VALID,86,VALID,0.333203,
2010-10-09, 00:57:04,VALID,999.107,VALID,0,VALID,92.41,VALID,0,VALID,24.1677,VALID,98,VALID,0.437109,
2010-10-09, 00:58:04,VALID,999.079,VALID,0,VALID,92.41,VALID,0,VALID,24.15,VALID,98,VALID,0.650391,
2010-10-09, 00:59:04,VALID,999.043,VALID,0,VALID,92.4481,VALID,0,VALID,24.1305,VALID,98,VALID,0.385938,
2010-10-09, 01:00:04,VALID,999.083,VALID,0,VALID,92.4786,VALID,0,VALID,24.111,VALID,98,VALID,0.337109,
2010-10-09, 01:01:04,VALID,999.1,VALID,0,VALID,92.5168,VALID,0,VALID,24.0701,VALID,131,VALID,0.596875,
2010-10-09, 01:02:04,VALID,999.054,VALID,0,VALID,92.5854,VALID,0,VALID,24.0506,VALID,153,VALID,1.15234,
2010-10-09, 01:03:04,VALID,999.038,VALID,0,VALID,92.6388,VALID,0,VALID,24.111,VALID,184,VALID,1.23867,
2010-10-09, 01:04:04,VALID,999.074,VALID,0,VALID,92.7075,VALID,0,VALID,24.0701,VALID,148,VALID,1.31016,
2010-10-09, 01:05:04,VALID,999.047,VALID,0,VALID,92.7075,VALID,0,VALID,24.0506,VALID,154,VALID,0.695313,
2010-10-09, 01:06:04,VALID,999.071,VALID,0,VALID,92.7075,VALID,0,VALID,24.0311,VALID,157,VALID,0.567969,
2010-10-09, 01:07:04,VALID,999.073,VALID,0,VALID,92.738,VALID,0,VALID,24.0525,VALID,181,VALID,0.768359,
2010-10-09, 01:08:04,VALID,999.069,VALID,0,VALID,92.7838,VALID,0,VALID,24.0897,VALID,182,VALID,0.5625,
2010-10-09, 01:09:04,VALID,999.076,VALID,0,VALID,92.8067,VALID,0.112286,VALID,24.0683,VALID,172,VALID,0.733203,
2010-10-09, 01:10:04,VALID,999.092,VALID,0,VALID,92.8296,VALID,0.112286,VALID,24.0488,VALID,175,VALID,0.894531,
2010-10-09, 01:11:04,VALID,999.122,VALID,0,VALID,92.8525,VALID,0,VALID,24.0701,VALID,164,VALID,0.998047,
2010-10-09, 01:12:04,VALID,999.112,VALID,0,VALID,92.8143,VALID,0.112286,VALID,24.0506,VALID,154,VALID,0.923437,
2010-10-09, 01:13:04,VALID,999.106,VALID,0,VALID,92.822,VALID,0.112286,VALID,24.0116,VALID,154,VALID,0.699609,
2010-10-09, 01:14:04,VALID,999.122,VALID,0,VALID,92.8143,VALID,0.112286,VALID,24.0116,VALID,156,VALID,0.699609,
2010-10-09, 01:15:04,VALID,999.088,VALID,0,VALID,92.822,VALID,0,VALID,23.9921,VALID,135,VALID,1.10234,
2010-10-09, 01:16:04,VALID,999.125,VALID,0,VALID,92.7914,VALID,0,VALID,23.9921,VALID,126,VALID,0.628516,
2010-10-09, 01:17:04,VALID,999.118,VALID,0,VALID,92.822,VALID,0.112286,VALID,23.9921,VALID,121,VALID,0.732813,
2010-10-09, 01:18:04,VALID,999.125,VALID,0,VALID,92.7762,VALID,0,VALID,23.9939,VALID,121,VALID,0.716797,
2010-10-09, 01:19:04,VALID,999.114,VALID,0,VALID,92.7838,VALID,0,VALID,23.9939,VALID,117,VALID,0.633203,
2010-10-09, 01:20:04,VALID,999.114,VALID,0,VALID,92.822,VALID,0,VALID,23.9921,VALID,101,VALID,0.759375,
2010-10-09, 01:21:04,VALID,999.106,VALID,0,VALID,92.8143,VALID,0,VALID,23.9921,VALID,60,VALID,0.881641,
2010-10-09, 01:22:04,VALID,999.104,VALID,0,VALID,92.8143,VALID,0,VALID,24.0116,VALID,70,VALID,0.964453,
2010-10-09, 01:23:04,VALID,999.066,VALID,0,VALID,92.7914,VALID,0,VALID,23.9921,VALID,59,VALID,0.989844,
2010-10-09, 01:24:04,VALID,999.065,VALID,0,VALID,92.7914,VALID,0,VALID,24.0329,VALID,35,VALID,0.898828,
2010-10-09, 01:25:04,VALID,999.031,VALID,0,VALID,92.7609,VALID,0,VALID,24.0134,VALID,14,VALID,0.782031,
2010-10-09, 01:26:04,VALID,999.009,VALID,0,VALID,92.7304,VALID,0,VALID,23.9939,VALID,9,VALID,0.791406,
2010-10-09, 01:27:04,VALID,998.941,VALID,0,VALID,92.6923,VALID,0,VALID,23.9744,VALID,7,VALID,0.816797,
2010-10-09, 01:28:04,VALID,998.928,VALID,0,VALID,92.6617,VALID,0,VALID,23.9744,VALID,7,VALID,0.529688,
2010-10-09, 01:29:04,VALID,998.905,VALID,0,VALID,92.6312,VALID,0,VALID,23.9744,VALID,7,VALID,0.567578,
2010-10-09, 01:30:04,VALID,998.886,VALID,0,VALID,92.616,VALID,0,VALID,23.9336,VALID,7,VALID,0.339063,
2010-10-09, 01:31:04,VALID,998.88,VALID,0,VALID,92.6083,VALID,0,VALID,23.9549,VALID,20,VALID,0.677344,
2010-10-09, 01:32:04,VALID,998.868,VALID,0,VALID,92.5778,VALID,0,VALID,23.9549,VALID,25,VALID,0.659375,
2010-10-09, 01:33:04,VALID,998.885,VALID,0,VALID,92.5778,VALID,0,VALID,23.9354,VALID,37,VALID,0.620313,
2010-10-09, 01:34:04,VALID,998.851,VALID,0,VALID,92.5778,VALID,0,VALID,23.9354,VALID,38,VALID,0.791016,
2010-10-09, 01:35:04,VALID,998.862,VALID,0,VALID,92.5778,VALID,0,VALID,23.9354,VALID,40,VALID,0.567578,
2010-10-09, 01:36:04,VALID,998.797,VALID,0,VALID,92.5702,VALID,0,VALID,23.914,VALID,40,VALID,0.656641,
2010-10-09, 01:37:04,VALID,998.802,VALID,0,VALID,92.5778,VALID,0,VALID,23.9354,VALID,40,VALID,0.391016,
2010-10-09, 01:38:04,VALID,998.776,VALID,0,VALID,92.6007,VALID,0,VALID,23.9354,VALID,40,VALID,0.430859,
2010-10-09, 01:39:04,VALID,998.798,VALID,0,VALID,92.6007,VALID,0,VALID,23.9354,VALID,358,VALID,0.682422,
2010-10-09, 01:40:04,VALID,998.817,VALID,0,VALID,92.6083,VALID,0,VALID,23.9159,VALID,358,VALID,0.721094,
2010-10-09, 01:41:04,VALID,998.769,VALID,0,VALID,92.616,VALID,0,VALID,23.9354,VALID,354,VALID,0.384766,
2010-10-09, 01:42:04,VALID,998.825,VALID,0,VALID,92.6541,VALID,0,VALID,23.9354,VALID,354,VALID,0.440234,
2010-10-09, 01:43:04,VALID,998.785,VALID,0,VALID,92.677,VALID,0,VALID,23.9159,VALID,354,VALID,0.33125,
2010-10-09, 01:44:04,VALID,998.757,VALID,0,VALID,92.6923,VALID,0,VALID,23.9354,VALID,354,VALID,0.247266,
2010-10-09, 01:45:04,VALID,998.812,VALID,0,VALID,92.7075,VALID,0,VALID,23.9159,VALID,354,VALID,0.0625,
2010-10-09, 01:46:04,VALID,998.82,VALID,0,VALID,92.7304,VALID,0,VALID,23.9159,VALID,354,VALID,0,
2010-10-09, 01:47:04,VALID,998.845,VALID,0,VALID,92.7304,VALID,0,VALID,23.8963,VALID,354,VALID,0,
2010-10-09, 01:48:04,VALID,998.848,VALID,0,VALID,92.7762,VALID,0,VALID,23.8963,VALID,354,VALID,0,
2010-10-09, 01:49:04,VALID,998.851,VALID,0,VALID,92.7838,VALID,0,VALID,23.8963,VALID,354,VALID,0,
2010-10-09, 01:50:04,VALID,998.859,VALID,0,VALID,92.8372,VALID,0,VALID,23.8963,VALID,354,VALID,0,
2010-10-09, 01:51:04,VALID,998.845,VALID,0,VALID,92.8372,VALID,0,VALID,23.8768,VALID,354,VALID,0,
2010-10-09, 01:52:04,VALID,998.852,VALID,0,VALID,92.8601,VALID,0,VALID,23.8768,VALID,354,VALID,0,
2010-10-09, 01:53:04,VALID,998.838,VALID,0,VALID,92.883,VALID,0,VALID,23.8573,VALID,354,VALID,0,
2010-10-09, 01:54:04,VALID,998.827,VALID,0,VALID,92.9059,VALID,0,VALID,23.8573,VALID,354,VALID,0,
2010-10-09, 01:55:04,VALID,998.859,VALID,0,VALID,92.944,VALID,0,VALID,23.8768,VALID,354,VALID,0.478516,
2010-10-09, 01:56:04,VALID,998.864,VALID,0,VALID,92.9593,VALID,0,VALID,23.8963,VALID,354,VALID,0.179688,
2010-10-09, 01:57:04,VALID,998.832,VALID,0,VALID,92.9898,VALID,0,VALID,23.8963,VALID,354,VALID,0.120312,
2010-10-09, 01:58:04,VALID,998.847,VALID,0,VALID,92.9822,VALID,0,VALID,23.9159,VALID,354,VALID,0,
2010-10-09, 01:59:04,VALID,998.813,VALID,0,VALID,93.0051,VALID,0,VALID,23.9159,VALID,354,VALID,0.544141,
2010-10-09, 02:00:04,VALID,998.825,VALID,0,VALID,93.028,VALID,0,VALID,23.9159,VALID,162,VALID,1.12305,
2010-10-09, 02:01:04,VALID,998.825,VALID,0,VALID,93.028,VALID,0,VALID,23.9957,VALID,161,VALID,0.741016,
2010-10-09, 02:02:04,VALID,998.807,VALID,0,VALID,93.0203,VALID,0,VALID,23.9939,VALID,166,VALID,1.05117,
2010-10-09, 02:03:04,VALID,998.8,VALID,0,VALID,93.0356,VALID,0,VALID,24.0348,VALID,158,VALID,0.528516,
2010-10-09, 02:04:04,VALID,998.822,VALID,0,VALID,92.9898,VALID,0,VALID,24.0134,VALID,159,VALID,0.864844,
2010-10-09, 02:05:04,VALID,998.811,VALID,0,VALID,92.944,VALID,0,VALID,24.0329,VALID,177,VALID,0.833984,
2010-10-09, 02:06:04,VALID,998.806,VALID,0,VALID,92.9211,VALID,0,VALID,24.0525,VALID,176,VALID,0.85,
2010-10-09, 02:07:04,VALID,998.772,VALID,0,VALID,92.8448,VALID,0,VALID,24.0525,VALID,162,VALID,0.667578,
2010-10-09, 02:08:04,VALID,998.805,VALID,0,VALID,92.7991,VALID,0,VALID,24.0506,VALID,175,VALID,0.630469,
2010-10-09, 02:09:04,VALID,998.726,VALID,0,VALID,92.7151,VALID,0,VALID,24.0701,VALID,165,VALID,0.632031,
2010-10-09, 02:10:04,VALID,998.733,VALID,0,VALID,92.6312,VALID,0,VALID,24.0506,VALID,163,VALID,0.638672,
2010-10-09, 02:11:04,VALID,998.718,VALID,0,VALID,92.5168,VALID,0,VALID,24.0525,VALID,163,VALID,0.558203,
2010-10-09, 02:12:04,VALID,998.724,VALID,0,VALID,92.4176,VALID,0,VALID,24.0311,VALID,160,VALID,0.766016,
2010-10-09, 02:13:04,VALID,998.705,VALID,0,VALID,92.3031,VALID,0,VALID,24.0311,VALID,150,VALID,0.638281,
2010-10-09, 02:14:04,VALID,998.686,VALID,0,VALID,92.1734,VALID,0,VALID,24.0116,VALID,150,VALID,0.378125,
2010-10-09, 02:15:04,VALID,998.678,VALID,0,VALID,92.0819,VALID,0.112286,VALID,24.0311,VALID,150,VALID,0.517969,
2010-10-09, 02:16:04,VALID,998.673,VALID,0,VALID,91.9827,VALID,0.112286,VALID,24.0116,VALID,150,VALID,0.433594,
2010-10-09, 02:17:04,VALID,998.669,VALID,0,VALID,91.9293,VALID,0,VALID,24.0116,VALID,150,VALID,0.534375,
2010-10-09, 02:18:04,VALID,998.674,VALID,0,VALID,91.8606,VALID,0,VALID,24.0116,VALID,150,VALID,0.249219,
2010-10-09, 02:19:04,VALID,998.685,VALID,0,VALID,91.8225,VALID,0,VALID,23.9708,VALID,150,VALID,0.346484,
2010-10-09, 02:20:04,VALID,998.659,VALID,0,VALID,91.7767,VALID,0,VALID,23.9726,VALID,150,VALID,0.384375,
2010-10-09, 02:21:04,VALID,998.634,VALID,0,VALID,91.7309,VALID,0,VALID,23.9317,VALID,150,VALID,0.283594,
2010-10-09, 02:22:04,VALID,998.667,VALID,0,VALID,91.7462,VALID,0,VALID,23.9336,VALID,150,VALID,0.153906,
2010-10-09, 02:23:04,VALID,998.646,VALID,0,VALID,91.8072,VALID,0,VALID,23.9159,VALID,150,VALID,0.0605469,
2010-10-09, 02:24:04,VALID,998.643,VALID,0,VALID,91.8988,VALID,0,VALID,23.9159,VALID,150,VALID,0.211328,
2010-10-09, 02:25:04,VALID,998.644,VALID,0,VALID,91.9445,VALID,0,VALID,23.8963,VALID,150,VALID,0.304688,
2010-10-09, 02:26:04,VALID,998.652,VALID,0,VALID,92.0209,VALID,0,VALID,23.8768,VALID,150,VALID,0.345703,
2010-10-09, 02:27:04,VALID,998.646,VALID,0,VALID,92.0666,VALID,0,VALID,23.8768,VALID,150,VALID,0.382813,
2010-10-09, 02:28:04,VALID,998.624,VALID,0,VALID,92.1429,VALID,0,VALID,23.8768,VALID,150,VALID,0.634375,
2010-10-09, 02:29:04,VALID,998.603,VALID,0,VALID,92.1887,VALID,0,VALID,23.8963,VALID,146,VALID,0.775781,
2010-10-09, 02:30:04,VALID,998.617,VALID,0,VALID,92.1887,VALID,0,VALID,23.9159,VALID,140,VALID,0.824219,
2010-10-09, 02:31:04,VALID,998.61,VALID,0,VALID,92.1963,VALID,0,VALID,23.9159,VALID,140,VALID,0.716797,
2010-10-09, 02:32:04,VALID,998.553,VALID,0,VALID,92.1963,VALID,0,VALID,23.9354,VALID,140,VALID,0.664844,
2010-10-09, 02:33:04,VALID,998.548,VALID,0,VALID,92.2192,VALID,0,VALID,23.9354,VALID,140,VALID,0.573438,
2010-10-09, 02:34:04,VALID,998.512,VALID,0,VALID,92.2192,VALID,0,VALID,23.9354,VALID,140,VALID,0.505859,
2010-10-09, 02:35:04,VALID,998.524,VALID,0,VALID,92.265,VALID,0,VALID,23.9159,VALID,140,VALID,0.395703,
2010-10-09, 02:36:04,VALID,998.501,VALID,0,VALID,92.2574,VALID,0,VALID,23.8963,VALID,140,VALID,0.373047,
2010-10-09, 02:37:04,VALID,998.492,VALID,0,VALID,92.3031,VALID,0,VALID,23.8945,VALID,140,VALID,0.387891,
2010-10-09, 02:38:04,VALID,998.482,VALID,0,VALID,92.3108,VALID,0,VALID,23.8945,VALID,140,VALID,0.416797,
2010-10-09, 02:39:04,VALID,998.474,VALID,0,VALID,92.326,VALID,0,VALID,23.8945,VALID,140,VALID,0.391016,
2010-10-09, 02:40:04,VALID,998.462,VALID,0,VALID,92.3413,VALID,0,VALID,23.875,VALID,140,VALID,0.338281,
2010-10-09, 02:41:04,VALID,998.436,VALID,0,VALID,92.3337,VALID,0,VALID,23.875,VALID,140,VALID,0.211328,
2010-10-09, 02:42:04,VALID,998.467,VALID,0,VALID,92.2803,VALID,0.112286,VALID,23.836,VALID,140,VALID,0.451562,
2010-10-09, 02:43:04,VALID,998.443,VALID,0,VALID,92.1811,VALID,0,VALID,23.7384,VALID,140,VALID,0.516797,
2010-10-09, 02:44:04,VALID,998.423,VALID,0,VALID,92.1582,VALID,0,VALID,23.6799,VALID,140,VALID,0.570313,
2010-10-09, 02:45:04,VALID,998.418,VALID,0,VALID,92.1734,VALID,0,VALID,23.6604,VALID,100,VALID,0.549219,
2010-10-09, 02:46:04,VALID,998.403,VALID,0,VALID,92.204,VALID,0,VALID,23.6019,VALID,93,VALID,0.730469,
2010-10-09, 02:47:04,VALID,998.4,VALID,0,VALID,92.326,VALID,0,VALID,23.6019,VALID,93,VALID,0.776563,
2010-10-09, 02:48:04,VALID,998.419,VALID,0,VALID,92.4481,VALID,0.112286,VALID,23.6214,VALID,81,VALID,0.892969,
2010-10-09, 02:49:04,VALID,998.435,VALID,0,VALID,92.5091,VALID,0,VALID,23.6427,VALID,74,VALID,0.882813,
2010-10-09, 02:50:04,VALID,998.433,VALID,0,VALID,92.5854,VALID,0.112286,VALID,23.6214,VALID,71,VALID,0.942578,
2010-10-09, 02:51:04,VALID,998.409,VALID,0,VALID,92.6541,VALID,0,VALID,23.6196,VALID,71,VALID,0.965625,
2010-10-09, 02:52:04,VALID,998.412,VALID,0,VALID,92.738,VALID,0,VALID,23.6604,VALID,71,VALID,0.984766,
2010-10-09, 02:53:04,VALID,998.403,VALID,0,VALID,92.7609,VALID,0,VALID,23.6799,VALID,71,VALID,0.971484,
2010-10-09, 02:54:04,VALID,998.382,VALID,0,VALID,92.8143,VALID,0,VALID,23.6604,VALID,71,VALID,0.778516,
2010-10-09, 02:55:04,VALID,998.403,VALID,0,VALID,92.8067,VALID,0,VALID,23.6409,VALID,71,VALID,0.466406,
2010-10-09, 02:56:04,VALID,998.42,VALID,0,VALID,92.8067,VALID,0,VALID,23.6214,VALID,71,VALID,0.275391,
2010-10-09, 02:57:04,VALID,998.408,VALID,0,VALID,92.822,VALID,0,VALID,23.6019,VALID,71,VALID,0.0535156,
2010-10-09, 02:58:04,VALID,998.447,VALID,0,VALID,92.8372,VALID,0.112286,VALID,23.5823,VALID,71,VALID,0,
2010-10-09, 02:59:04,VALID,998.411,VALID,0,VALID,92.8448,VALID,0,VALID,23.5628,VALID,71,VALID,0,
2010-10-09, 03:00:04,VALID,998.456,VALID,0,VALID,92.8677,VALID,0,VALID,23.5628,VALID,71,VALID,0,
2010-10-09, 03:01:04,VALID,998.457,VALID,0,VALID,92.8906,VALID,0,VALID,23.5433,VALID,71,VALID,0,
2010-10-09, 03:02:04,VALID,998.444,VALID,0,VALID,92.8983,VALID,0,VALID,23.5433,VALID,71,VALID,0.0449219,
2010-10-09, 03:03:04,VALID,998.47,VALID,0,VALID,92.9211,VALID,0,VALID,23.5433,VALID,71,VALID,0.398047,
2010-10-09, 03:04:04,VALID,998.459,VALID,0,VALID,92.9364,VALID,0,VALID,23.5628,VALID,71,VALID,0.198437,
2010-10-09, 03:05:04,VALID,998.467,VALID,0,VALID,92.9745,VALID,0,VALID,23.5628,VALID,71,VALID,0,
2010-10-09, 03:06:04,VALID,998.452,VALID,0,VALID,93.0203,VALID,0,VALID,23.5823,VALID,71,VALID,0.487891,
2010-10-09, 03:07:04,VALID,998.462,VALID,0,VALID,93.0661,VALID,0,VALID,23.5823,VALID,85,VALID,0.761328,
2010-10-09, 03:08:04,VALID,998.463,VALID,0,VALID,93.0966,VALID,0,VALID,23.6036,VALID,85,VALID,0.848828,
2010-10-09, 03:09:04,VALID,998.496,VALID,0,VALID,93.0966,VALID,0,VALID,23.5646,VALID,85,VALID,0.257422,
2010-10-09, 03:10:04,VALID,998.516,VALID,0,VALID,93.1195,VALID,0,VALID,23.5451,VALID,85,VALID,0.622266,
2010-10-09, 03:11:04,VALID,998.49,VALID,0,VALID,93.1348,VALID,0,VALID,23.5646,VALID,85,VALID,0.176563,
2010-10-09, 03:12:04,VALID,998.473,VALID,0,VALID,93.1653,VALID,0,VALID,23.5646,VALID,85,VALID,0.273047,
2010-10-09, 03:13:04,VALID,998.455,VALID,0,VALID,93.1653,VALID,0,VALID,23.5646,VALID,85,VALID,0.7375,
2010-10-09, 03:14:04,VALID,998.471,VALID,0,VALID,93.1958,VALID,0,VALID,23.5646,VALID,85,VALID,0.865234,
2010-10-09, 03:15:04,VALID,998.454,VALID,0,VALID,93.2111,VALID,0,VALID,23.5841,VALID,85,VALID,0.739453,
2010-10-09, 03:16:04,VALID,998.484,VALID,0,VALID,93.1882,VALID,0,VALID,23.5451,VALID,85,VALID,0.525391,
2010-10-09, 03:17:04,VALID,998.491,VALID,0,VALID,93.1729,VALID,0,VALID,23.4866,VALID,85,VALID,0.406641,
2010-10-09, 03:18:04,VALID,998.458,VALID,0,VALID,93.1958,VALID,0,VALID,23.4671,VALID,85,VALID,0.487109,
2010-10-09, 03:19:04,VALID,998.476,VALID,0,VALID,93.1882,VALID,0,VALID,23.4653,VALID,85,VALID,0.380469,
2010-10-09, 03:20:04,VALID,998.461,VALID,0,VALID,93.1805,VALID,0,VALID,23.4475,VALID,85,VALID,0.333203,
2010-10-09, 03:21:04,VALID,998.478,VALID,0,VALID,93.1729,VALID,0,VALID,23.4085,VALID,77,VALID,0.555859,
2010-10-09, 03:22:04,VALID,998.479,VALID,0,VALID,93.15,VALID,0,VALID,23.3695,VALID,9,VALID,0.805469,
2010-10-09, 03:23:04,VALID,998.495,VALID,0,VALID,93.1882,VALID,0,VALID,23.389,VALID,358,VALID,0.708203,
2010-10-09, 03:24:04,VALID,998.493,VALID,0,VALID,93.1958,VALID,0,VALID,23.389,VALID,358,VALID,0.579687,
2010-10-09, 03:25:04,VALID,998.523,VALID,0,VALID,93.1882,VALID,0,VALID,23.389,VALID,352,VALID,0.827734,
2010-10-09, 03:26:04,VALID,998.547,VALID,0,VALID,93.234,VALID,0,VALID,23.3872,VALID,344,VALID,0.770703,
2010-10-09, 03:27:04,VALID,998.493,VALID,0,VALID,93.2645,VALID,0,VALID,23.4067,VALID,344,VALID,0.635547,
2010-10-09, 03:28:04,VALID,998.52,VALID,0,VALID,93.2721,VALID,0,VALID,23.428,VALID,344,VALID,0.646484,
2010-10-09, 03:29:04,VALID,998.527,VALID,0,VALID,93.295,VALID,0,VALID,23.4085,VALID,344,VALID,0.693359,
2010-10-09, 03:30:04,VALID,998.503,VALID,0,VALID,93.2874,VALID,0,VALID,23.389,VALID,344,VALID,0.801172,
2010-10-09, 03:31:04,VALID,998.508,VALID,0,VALID,93.3179,VALID,0,VALID,23.389,VALID,344,VALID,0.612891,
2010-10-09, 03:32:04,VALID,998.481,VALID,0,VALID,93.3331,VALID,0,VALID,23.3677,VALID,344,VALID,0.413672,
2010-10-09, 03:33:04,VALID,998.482,VALID,0,VALID,93.3866,VALID,0,VALID,23.3872,VALID,344,VALID,0.261328,
2010-10-09, 03:34:04,VALID,998.475,VALID,0,VALID,93.356,VALID,0,VALID,23.3872,VALID,344,VALID,0.396484,
2010-10-09, 03:35:04,VALID,998.464,VALID,0,VALID,93.3866,VALID,0,VALID,23.389,VALID,344,VALID,0,
2010-10-09, 03:36:04,VALID,998.466,VALID,0,VALID,93.4018,VALID,0,VALID,23.389,VALID,344,VALID,0,
2010-10-09, 03:37:04,VALID,998.457,VALID,0,VALID,93.4018,VALID,0,VALID,23.389,VALID,344,VALID,0,
2010-10-09, 03:38:04,VALID,998.506,VALID,0,VALID,93.4171,VALID,0,VALID,23.3677,VALID,344,VALID,0,
2010-10-09, 03:39:04,VALID,998.477,VALID,0,VALID,93.44,VALID,0,VALID,23.389,VALID,344,VALID,0,
2010-10-09, 03:40:04,VALID,998.481,VALID,0,VALID,93.4552,VALID,0,VALID,23.389,VALID,344,VALID,0,
2010-10-09, 03:41:04,VALID,998.513,VALID,0,VALID,93.4476,VALID,0,VALID,23.3695,VALID,344,VALID,0,
2010-10-09, 03:42:04,VALID,998.515,VALID,0,VALID,93.4705,VALID,0,VALID,23.3677,VALID,344,VALID,0,
2010-10-09, 03:43:04,VALID,998.519,VALID,0,VALID,93.4857,VALID,0,VALID,23.3677,VALID,344,VALID,0.383984,
2010-10-09, 03:44:04,VALID,998.546,VALID,0,VALID,93.4934,VALID,0,VALID,23.3872,VALID,345,VALID,0.664063,
2010-10-09, 03:45:04,VALID,998.565,VALID,0,VALID,93.4781,VALID,0,VALID,23.35,VALID,102,VALID,1.02656,
2010-10-09, 03:46:04,VALID,998.567,VALID,0,VALID,93.4934,VALID,0,VALID,23.2915,VALID,83,VALID,0.945703,